DW3471 Weather Reports


Display with metric or nautical units.
time (UTC)temp
F
wind
direction
speed
MPH
gust
MPH
rain 1hr
in
rain 24hr
in
rain mn
in
humidity
%
barometer
mb
20260509012817 60 161 1.0 1.0 0.00 0.00 0.00 55 1011.9
20260509011816 59 140 1.0 1.0 0.00 0.00 0.00 55 1011.9
20260509010745 59 140 0.0 0.0 0.00 0.00 0.00 55 1011.5
20260509005744 60 140 0.0 0.0 0.00 0.00 0.00 56 1011.2
20260509004713 60 140 0.0 0.0 0.00 0.00 0.00 56 1011.2
20260509003712 60 140 0.0 0.0 0.00 0.00 0.00 54 1010.8
20260509002711 60 140 0.0 0.0 0.00 0.00 0.00 54 1010.8
20260509001711 60 140 0.0 0.0 0.00 0.00 0.00 54 1010.5
20260509000710 61 140 0.0 0.0 0.00 0.00 0.00 52 1010.5
20260508235639 61 140 0.0 0.0 0.00 0.00 0.00 52 1010.4
20260508234638 62 147 0.0 0.0 0.00 0.00 0.00 52 1010.4
20260508233637 62 147 0.0 0.0 0.00 0.00 0.00 50 1010.4
20260508232637 63 147 0.0 0.0 0.00 0.00 0.00 48 1010.1
20260508231605 64 147 0.0 0.0 0.00 0.00 0.00 46 1010.1
20260508230604 64 346 0.0 0.0 0.00 0.00 0.00 46 1010.1
20260508225603 64 269 0.0 1.0 0.00 0.00 0.00 45 1010.1
20260508224603 65 269 0.0 2.0 0.00 0.00 0.00 43 1010.1
20260508223602 65 269 1.0 2.0 0.00 0.00 0.00 42 1009.8
20260508222601 65 267 0.0 2.0 0.00 0.00 0.00 42 1010.1
20260508221529 65 265 1.0 2.0 0.00 0.00 0.00 42 1010.1
20260508220529 65 301 1.0 2.0 0.00 0.00 0.00 41 1009.8
20260508215528 66 297 1.0 3.0 0.00 0.00 0.00 40 1010.2
20260508214528 67 342 1.0 4.0 0.00 0.00 0.00 38 1010.2
20260508213527 68 289 2.0 4.0 0.00 0.00 0.00 36 1009.9
20260508212526 68 275 2.0 5.0 0.00 0.00 0.00 36 1009.9
20260508211525 68 283 2.0 4.0 0.00 0.00 0.00 39 1010.2
20260508210454 67 305 2.0 6.0 0.00 0.00 0.00 39 1010.2
20260508205453 65 283 4.0 6.0 0.00 0.00 0.00 39 1010.2
20260508204350 65 308 2.0 4.0 0.00 0.00 0.00 40 1010.2
20260508203349 66 277 3.0 6.0 0.00 0.00 0.00 40 1010.2
20260508202349 67 299 2.0 5.0 0.00 0.00 0.00 39 1010.2
20260508201348 66 314 2.0 5.0 0.00 0.00 0.00 40 1010.6
20260508200348 65 278 2.0 7.0 0.00 0.00 0.00 39 1010.5
20260508195347 65 265 3.0 6.0 0.00 0.00 0.00 41 1010.6
20260508194346 66 321 2.0 6.0 0.00 0.00 0.00 40 1010.6
20260508193243 67 290 3.0 8.0 0.00 0.00 0.00 39 1010.6
20260508192243 67 282 3.0 8.0 0.00 0.00 0.00 41 1010.6
20260508191211 66 291 2.0 7.0 0.00 0.00 0.00 38 1010.6
20260508190140 67 285 2.0 7.0 0.00 0.00 0.00 38 1010.6
20260508185139 66 285 3.0 6.0 0.00 0.00 0.00 36 1010.6
20260508184108 67 311 3.0 7.0 0.00 0.00 0.00 36 1010.9
20260508183107 67 306 2.0 5.0 0.00 0.00 0.00 35 1010.9
20260508182106 66 312 3.0 5.0 0.00 0.00 0.00 37 1010.9
20260508181106 67 331 2.0 6.0 0.00 0.00 0.00 39 1011.3
20260508180034 66 283 2.0 7.0 0.00 0.00 0.00 39 1011.3
20260508175034 65 270 2.0 5.0 0.00 0.00 0.00 40 1011.3
20260508174033 65 237 1.0 5.0 0.00 0.00 0.00 41 1011.6
20260508173032 67 321 2.0 7.0 0.00 0.00 0.00 37 1012.0
20260508172032 67 321 2.0 6.0 0.00 0.00 0.00 39 1011.6
20260508171031 66 209 3.0 6.0 0.00 0.00 0.00 38 1011.6
20260508170030 66 329 2.0 8.0 0.00 0.00 0.00 39 1011.6
20260508165029 65 310 2.0 5.0 0.00 0.00 0.00 42 1011.6
20260508164029 64 296 2.0 8.0 0.00 0.00 0.00 43 1011.6
20260508163028 63 289 2.0 5.0 0.00 0.00 0.00 44 1012.3
20260508162028 62 329 3.0 4.0 0.00 0.00 0.00 45 1012.3
20260508161027 62 288 3.0 7.0 0.00 0.00 0.00 42 1012.6
20260508160026 61 308 2.0 6.0 0.00 0.00 0.00 44 1012.6
20260508155026 60 336 2.0 4.0 0.00 0.00 0.00 44 1012.9
20260508154025 61 327 2.0 5.0 0.00 0.00 0.00 43 1013.2
20260508153024 60 248 2.0 4.0 0.00 0.00 0.00 44 1012.9
20260508152024 60 303 2.0 4.0 0.00 0.00 0.00 44 1013.2
20260508151023 60 294 2.0 4.0 0.00 0.00 0.00 46 1012.9
20260508150022 59 302 2.0 4.0 0.00 0.00 0.00 47 1013.2
20260508145022 59 310 1.0 3.0 0.00 0.00 0.00 45 1013.2
20260508144021 59 323 1.0 4.0 0.00 0.00 0.00 45 1013.2
20260508143020 59 30 1.0 4.0 0.00 0.00 0.00 47 1013.2
20260508142020 58 306 2.0 4.0 0.00 0.00 0.00 48 1013.2
20260508141019 57 25 1.0 4.0 0.00 0.00 0.00 48 1013.2
20260508140018 56 316 3.0 5.0 0.00 0.00 0.00 50 1013.2
20260508135018 56 342 2.0 3.0 0.00 0.00 0.00 49 1013.2
20260508134017 55 339 1.0 3.0 0.00 0.00 0.00 52 1013.5
20260508133017 55 340 2.0 3.0 0.00 0.00 0.00 53 1013.2
20260508132016 53 177 0.0 4.0 0.00 0.00 0.00 59 1013.5
20260508130944 52 300 2.0 2.0 0.00 0.00 0.00 63 1013.5
20260508125943 52 8 2.0 3.0 0.00 0.00 0.00 66 1013.5
20260508124943 51 5 2.0 4.0 0.00 0.00 0.00 67 1013.5
20260508123942 51 312 0.0 3.0 0.00 0.00 0.00 72 1013.5
20260508122942 50 304 1.0 2.0 0.00 0.00 0.00 76 1013.5
20260508121941 48 26 1.0 3.0 0.00 0.00 0.00 78 1013.5
20260508120940 47 331 1.0 2.0 0.00 0.00 0.00 79 1013.1
20260508115940 46 333 1.0 2.0 0.00 0.00 0.00 80 1013.1
20260508114908 45 327 0.0 2.0 0.00 0.00 0.00 81 1013.1
20260508113907 44 89 0.0 1.0 0.00 0.00 0.00 81 1013.1
20260508112906 44 98 0.0 0.0 0.00 0.00 0.00 81 1013.1
20260508111835 44 117 0.0 0.0 0.00 0.00 0.00 81 1013.1
20260508110834 44 348 0.0 0.0 0.00 0.00 0.00 81 1013.1
20260508105833 44 145 0.0 0.0 0.00 0.00 0.00 81 1013.2
20260508104832 44 145 0.0 0.0 0.00 0.00 0.00 80 1012.8
20260508103832 44 360 0.0 0.0 0.00 0.00 0.00 80 1012.8
20260508102831 44 360 0.0 0.0 0.00 0.00 0.00 80 1012.8
20260508101830 45 256 0.0 0.0 0.00 0.00 0.00 80 1012.9
20260508100830 45 256 0.0 0.0 0.00 0.00 0.00 79 1012.5
20260508095829 45 181 0.0 0.0 0.00 0.00 0.00 79 1012.5
20260508094829 45 181 0.0 0.0 0.00 0.00 0.00 79 1012.2
20260508093828 46 181 0.0 0.0 0.00 0.00 0.00 78 1012.2
20260508092828 46 181 0.0 0.0 0.00 0.00 0.00 78 1012.2
20260508091827 47 355 0.0 0.0 0.00 0.00 0.00 77 1012.2
20260508090827 47 355 0.0 0.0 0.00 0.00 0.00 76 1012.2
20260508085755 48 355 0.0 1.0 0.00 0.00 0.00 75 1012.2
20260508084754 48 355 0.0 1.0 0.00 0.00 0.00 74 1011.9
20260508083753 49 355 0.0 1.0 0.00 0.01 0.00 73 1011.9
20260508082753 49 355 0.0 3.0 0.00 0.01 0.00 72 1011.9
20260508081752 49 345 1.0 3.0 0.00 0.01 0.00 71 1011.6
20260508080751 50 355 2.0 6.0 0.00 0.01 0.00 70 1011.3
20260508075751 50 330 2.0 4.0 0.00 0.01 0.00 69 1011.2
20260508074750 50 326 2.0 8.0 0.00 0.02 0.00 68 1010.9
20260508073718 51 0 2.0 5.0 0.00 0.03 0.00 68 1010.9
20260508072718 51 327 2.0 7.0 0.00 0.03 0.00 67 1010.9
20260508071717 51 338 3.0 5.0 0.00 0.03 0.00 66 1010.6
20260508070716 51 334 2.0 6.0 0.00 0.05 0.00 66 1010.6
20260508065715 51 289 4.0 7.0 0.00 0.05 0.00 66 1010.2
20260508064715 51 307 2.0 6.0 0.00 0.05 0.00 68 1010.2
20260508063644 52 328 1.0 2.0 0.00 0.06 0.00 69 1010.2
20260508062643 52 320 1.0 7.0 0.00 0.07 0.00 71 1010.2
20260508061642 53 327 1.0 1.0 0.00 0.08 0.00 73 1009.6
20260508060641 53 327 0.0 2.0 0.00 0.10 0.00 73 1009.2
20260508055641 53 350 2.0 2.0 0.00 0.11 0.00 73 1009.2
20260508054640 53 43 0.0 1.0 0.00 0.11 0.00 72 1009.2
20260508053640 53 43 0.0 0.0 0.00 0.12 0.00 71 1009.2
20260508052639 54 43 0.0 0.0 0.00 0.13 0.00 69 1009.3
20260508051638 54 43 0.0 0.0 0.00 0.14 0.00 68 1009.2
20260508050607 54 43 0.0 1.0 0.00 0.14 0.00 68 1008.9
20260508045535 54 45 0.0 1.0 0.00 0.14 0.00 67 1008.5
20260508044504 54 44 0.0 2.0 0.00 0.14 0.00 66 1008.9
20260508043503 54 54 0.0 1.0 0.00 0.14 0.00 65 1008.5
20260508042503 54 35 1.0 2.0 0.00 0.14 0.00 63 1008.5
20260508041502 54 76 1.0 2.0 0.00 0.14 0.00 61 1008.5
20260508040501 54 309 2.0 3.0 0.00 0.14 0.00 60 1008.9
20260508035500 54 92 0.0 0.0 0.00 0.14 0.14 60 1008.5
20260508034358 54 236 0.0 2.0 0.00 0.14 0.14 61 1008.5
20260508033357 54 313 0.0 1.0 0.00 0.15 0.14 60 1008.5
20260508032356 54 313 0.0 0.0 0.00 0.15 0.14 58 1008.5
20260508031325 53 313 0.0 0.0 0.00 0.15 0.14 59 1008.5
20260508030324 53 313 0.0 0.0 0.00 0.15 0.14 56 1008.5
20260508025323 53 313 0.0 0.0 0.00 0.15 0.14 60 1008.5
20260508024323 54 313 0.0 0.0 0.00 0.15 0.14 60 1008.5
20260508023322 54 313 0.0 1.0 0.00 0.15 0.14 58 1008.5
20260508022250 55 313 0.0 0.0 0.00 0.16 0.14 55 1008.1
20260508021218 55 313 0.0 0.0 0.00 0.21 0.14 54 1008.5
20260508020218 55 313 0.0 0.0 0.00 0.21 0.14 52 1008.1
20260508015217 55 313 0.0 0.0 0.00 0.21 0.14 51 1008.1
20260508014216 55 313 0.0 0.0 0.00 0.22 0.14 54 1008.1
20260508013216 55 313 0.0 0.0 0.00 0.22 0.14 55 1008.0